Location: Bartshausen
(51.8454°N, 9.8167°E)
Time: 23:36:10
(UTC+00:00)

ADEOS Rocket - Visible Passes

Search period start: 15 February 2026 00:00
Search period end: 25 February 2026 00:00
Orbit: 858 x 1305 km, 98.7° (Epoch: 14 February)

Date Brightness Start Highest point End Pass type
(mag) Time Alt. Az. Time Alt. Az. Time Alt. Az.
15 Feb 4.9 02:03:48 10° NNE 02:05:33 21° NNE 02:05:33 21° NNE visible
15 Feb 4.5 03:50:09 10° N 03:52:29 19° NNW 03:52:29 19° NNW visible
16 Feb 5.4 01:14:44 10° NNE 01:15:36 14° NE 01:15:36 14° NE visible
16 Feb 4.4 03:00:10 10° N 03:02:32 24° N 03:02:32 24° N visible
16 Feb 4.8 04:48:37 10° NNW 04:49:27 10° NW 04:49:27 10° NW visible
17 Feb 4.7 02:10:35 10° NNE 02:12:34 23° NNE 02:12:34 23° NNE visible
17 Feb 4.4 03:57:06 10° N 03:59:30 18° NNW 03:59:30 18° NNW visible
18 Feb 5.3 01:21:24 10° NNE 01:22:37 16° NE 01:22:37 16° NE visible
18 Feb 4.3 03:07:01 10° N 03:09:32 25° NNW 03:09:32 25° NNW visible
19 Feb 4.5 02:17:22 10° NNE 02:19:36 25° NNE 02:19:36 25° NNE visible
19 Feb 4.5 04:04:03 10° N 04:06:31 17° NW 04:06:31 17° NW visible
20 Feb 5.1 01:28:07 10° NNE 01:29:39 18° NE 01:29:39 18° NE visible
20 Feb 4.2 03:13:52 10° N 03:16:35 25° NNW 03:16:35 25° NNW visible
21 Feb 5.6 00:39:35 10° NE 00:39:42 10° NE 00:39:42 10° NE visible
21 Feb 4.4 02:24:09 10° NNE 02:26:38 28° N 02:26:38 28° N visible
21 Feb 4.5 04:11:02 10° NNW 04:13:34 16° NW 04:13:34 16° NW visible
22 Feb 4.9 01:34:49 10° NNE 01:36:41 21° NNE 01:36:41 21° NNE visible
22 Feb 4.1 03:20:43 10° N 03:23:38 26° NNW 03:23:38 26° NNW visible
23 Feb 5.5 00:46:07 10° NE 00:46:46 12° NE 00:46:46 12° NE visible
23 Feb 4.2 02:30:56 10° NNE 02:33:41 31° N 02:33:41 31° N visible
23 Feb 4.5 04:18:02 10° NNW 04:20:37 15° NW 04:20:37 15° NW visible
24 Feb 4.7 01:41:31 10° NNE 01:43:45 24° NNE 01:43:45 24° NNE visible
24 Feb 4.1 03:27:34 10° N 03:30:41 25° NNW 03:30:41 25° NNW visible
